Location: Amberg
(48.0613°N, 10.6820°E)
Time: 20:45:21
(UTC+00:00)

Meteor 2-3 Rocket - Pass Details

Date: 18 November 2025
Orbit: 841 x 884 km, 81.2° (Epoch: 05 December)

Event Time Altitude Azimuth Distance (km) Brightness Sun altitude
Rises 18:29:50 0° 344° (NNW) 3,463 7.1 -28.8°
Reaches altitude 10° 18:32:21 10° 340° (NNW) 2,515 6.4 -29.2°
Maximum altitude 18:37:50 51° 266° (W) 1,071 4.5 -30.1°
Drops below altitude 10° 18:43:14 10° 192° (SSW) 2,470 6.2 -31.0°
Sets 18:45:41 0° 187° (S) 3,396 6.9 -31.4°
